User: anonymous
Location: Caltech
(34.1382°N, 118.1253°W)
Time: 03:09:01
(UTC-07:00)
Language:

SL-16 R/B - Orbit

View from above orbital plane
View from above orbital plane
View from above satellite
View from above satellite

Ground track
Ground track

The orbit data is extracted from the following two-line orbital elements,

1 31793U 07029B   14232.77629027 -.00000217  00000-0 -88556-4 0   453
2 31793 070.9781 035.4884 0002959 279.6961 173.4860 14.14285008368889
Epoch (UTC): 20 August 2014 18:37:51
Eccentricity: 0.0002959
inclination: 70.9781°
perigee height: 842 km
apogee height: 847 km
right ascension of ascending node: 35.4884°
argument of perigee: 279.6961°
revolutions per day: 14.14285008
mean anomaly at epoch: 173.4860°
orbit number at epoch: 36888

The dashed part of the orbit path shows where the satellite is in the earth's shadow,  

DLR